Flag for Germany Weather past 2 weeks in Leipzig, Saxony, Germany

Now
66 °F

Partly sunny.


Feels Like: 66 °F
Forecast: 55 / 62 °F
Wind: 7 mph from Northwest

Location: Leipzig-Schkeuditz

Current Time: Sep 1, 2014 at 4:35:22 PM

Latest Report: Sep 1, 2014 at 4:20 PM


Visibility: N/A

Pressure: 30.07 "Hg

Humidity: 64%

Dew point: 54 °F

Location of LeipzigLocation

Historic Weather in Leipzig — Graph

°F

Leipzig temperature yesterday

Maximum temperature yesterday: 64 °F (at 2:20 PM)
Minimum temperature yesterday: 57 °F (at 9:20 PM)
Average temperature yesterday: 60 °F

Past Weeks' High & Low Weather Summary

 TemperatureHumidityPressure
High73 °F (Aug 28, 3:50 PM)100% (Aug 26, 1:20 AM)30.09 "Hg (Aug 26, 1:20 AM)
Low48 °F (Aug 20, 3:50 AM)35% (Aug 22, 2:20 PM)29.68 "Hg (Aug 18, 11:20 AM)
Average59 °F75%29.93 "Hg
* Reported Aug 17 3:20 PM — Sep 1 3:20 PM, Leipzig, Weather by CustomWeather, © 2014

Note: Actual official high and low records may vary slightly from our data, if they occured in-between our weather recording intervals... More about our weather records

Advertising

Leipzig weather history for previous 24 hours

 ConditionsComfort  
Time TempWeatherWind HumidityBarometerVisibility
3:20 PM
Sep 1
64 °FBroken clouds.6 mph68%30.07 "HgN/A
2:50 PM64 °FBroken clouds.8 mph68%30.07 "HgN/A
2:20 PM63 °FBroken clouds.8 mph73%30.07 "HgN/A
1:50 PM63 °FBroken clouds.9 mph73%30.07 "HgN/A
1:20 PM63 °FBroken clouds.8 mph77%30.07 "HgN/A
12:50 PM61 °FBroken clouds.7 mph88%30.07 "HgN/A
12:20 PM61 °FBroken clouds.6 mph83%30.07 "HgN/A
11:50 AM59 °FPartly sunny.5 mph88%30.07 "HgN/A
11:20 AM59 °FPartly sunny.6 mph88%30.07 "HgN/A
10:50 AM57 °FPartly sunny.6 mph94%30.07 "HgN/A
10:20 AM57 °FPartly sunny.8 mph94%30.07 "Hg6 mi
9:50 AM55 °FPartly sunny.8 mph100%30.04 "Hg5 mi
9:20 AM55 °FFog.9 mph94%30.04 "Hg3 mi
8:50 AM55 °FFog.9 mph100%30.04 "Hg2 mi
8:20 AM54 °FFog.9 mph100%30.04 "Hg2 mi
7:50 AM54 °FFog.8 mph100%30.04 "Hg2 mi
7:20 AM54 °FFog.9 mph100%30.04 "Hg3 mi
6:50 AM54 °FPassing clouds.7 mph100%30.01 "Hg6 mi
6:20 AM52 °FPassing clouds.7 mph100%30.01 "HgN/A
5:50 AM52 °FPassing clouds.6 mph100%30.01 "HgN/A
5:20 AM52 °FPassing clouds.7 mph100%30.01 "HgN/A
4:50 AM54 °FPassing clouds.8 mph94%30.01 "HgN/A
4:20 AM54 °FPassing clouds.9 mph94%29.98 "HgN/A
3:50 AM54 °FPassing clouds.8 mph94%29.98 "HgN/A
3:20 AM54 °FPassing clouds.8 mph100%29.98 "HgN/A
2:50 AM55 °FPartly cloudy.8 mph94%29.98 "HgN/A
2:20 AM55 °FPartly cloudy.7 mph94%29.98 "HgN/A
1:50 AM55 °FPartly cloudy.8 mph94%29.98 "HgN/A
1:20 AM55 °FPartly cloudy.8 mph94%29.95 "HgN/A
12:50 AM55 °FPartly cloudy.7 mph94%29.95 "HgN/A
12:20 AM55 °FClear.7 mph94%29.95 "Hg10 mi
11:50 PM
Aug 31
57 °FClear.7 mph88%29.95 "Hg10 mi
11:20 PM57 °FPartly cloudy.6 mph88%29.95 "HgN/A
10:50 PM57 °FPartly cloudy.8 mph88%29.92 "HgN/A
10:20 PM57 °FPassing clouds.8 mph88%29.92 "HgN/A
9:50 PM57 °FPartly cloudy.7 mph94%29.92 "HgN/A
9:20 PM57 °FPartly cloudy.5 mph88%29.92 "HgN/A
8:50 PM59 °FBroken clouds.3 mph82%29.92 "HgN/A
8:20 PM59 °FPartly sunny.3 mph82%29.89 "HgN/A
7:50 PM59 °FPartly sunny.3 mph82%29.89 "HgN/A
7:20 PM61 °FBroken clouds.3 mph77%29.89 "HgN/A
6:50 PM61 °FBroken clouds.2 mph77%29.89 "HgN/A
6:20 PM61 °FPartly sunny.2 mph72%29.89 "HgN/A
5:50 PM61 °FPartly sunny.3 mph68%29.89 "HgN/A
5:20 PM61 °FPartly sunny.5 mph72%29.89 "HgN/A
4:50 PM59 °FPartly sunny.8 mph82%29.89 "HgN/A
4:20 PM59 °FSprinkles. Scattered clouds.9 mph82%29.89 "HgN/A
Weather by CustomWeather, © 2014

See weather overviewHow to use our weather pages